Regional Weather Roundup
Issued by NWS Columbia, SC

Home | Current Version | Previous Version | Text Only | Print | Product List | Glossary On
Versions: 1 2 3 4 5 6 7 8 9 10 11 12 13 14 15 16 17 18 19 20 21 22 23 24 25 26 27 28 29 30 31 32 33 34 35 36 37 38 39 40 41 42 43 44 45 46 47 48 49 50
000
ASUS42 KCAE 252110
RWRCAE
REGIONAL WEATHER ROUNDUP
NATIONAL WEATHER SERVICE COLUMBIA SC
500 PM EDT THU AUG 25 2016

NOTE: "FAIR" INDICATES FEW OR NO CLOUDS BELOW 12,000 FEET WITH NO
SIGNIFICANT WEATHER AND/OR OBSTRUCTIONS TO VISIBILITY.

NOT ALL STATIONS ARE QUALITY CONTROLLED BY THE NATIONAL
WEATHER SERVICE. USE DATA WITH CAUTION...ESPECIALLY
DEWPOINT OBSERVATIONS.

SCZ001>056-GAZ040-063>065-077-252200-
...UPSTATE SOUTH CAROLINA...

CITY           SKY/WX    TMP DP  RH WIND       PRES   REMARKS
ANDERSON       SUNNY     90  69  50 VRB3      30.11F
LIBERTY        PTCLDY    90  72  55 SW5       30.12F HX  97
SPARTANBURG    SUNNY     90  66  45 W3        30.10F
CLEMSON        SUNNY     91  68  46 CALM      30.13F HX  95
GREENVILLE     MOSUNNY   88  69  53 SE5       30.13F
GREENWOOD      PTSUNNY   91  67  44 CALM      30.11F
GREER          MOSUNNY   90  68  48 CALM      30.11F
ROCK HILL      PTSUNNY   95  63  34 W5        30.10F HX  96
CHESTER        CLEAR     86  68  54 CALM      30.10F
LAURENS        CLEAR     91  68  46 CALM      30.10F HX  95


...CENTRAL SOUTH CAROLINA...

CITY           SKY/WX    TMP DP  RH WIND       PRES   REMARKS
COLUMBIA APT   MOSUNNY   93  67  42 CALM      30.07F HX  96
COLUMBIA OWENS SUNNY     92  67  43 MISG      30.08F HX  95
MCENTIRE ANGB  MOSUNNY   91  66  43 VRB1      30.08F
ORANGEBURG     MOSUNNY   90  64  42 E7        30.08F
SUMTER SHAW    MOSUNNY   91  67  44 NE7       30.06F
NEWBERRY       CLEAR     91  70  49 W7        30.12F HX  97
MANNING        CLOUDY    88  64  45 SE3       30.08S
LANCASTER      CLEAR     91  64  40 CALM      30.10S
WINNSBORO      CLEAR     91  66  43 CALM      30.09F


...EASTERN AND COASTAL SOUTH CAROLINA...

CITY           SKY/WX    TMP DP  RH WIND       PRES   REMARKS
MYRTLE BEACH   MOSUNNY   88  66  48 S15       30.11F
N MYRTLE BCH   MOSUNNY   85  71  63 VRB7      30.09F
CONWAY         MOCLDY    84  70  61 SE5       30.09R
MARION         MOCLDY    88  66  48 CALM      30.08F
HARTSVILLE     MOCLDY    88  64  45 CALM      30.09S
FLORENCE       SUNNY     92  65  40 SE6       30.09S
DARLINGTON     MOSUNNY   91  68  46 CALM      30.09F HX  95
CHARLESTON APT MOSUNNY   89  70  53 SE12      30.08F
MOUNT PLEASANT FAIR      86  72  62 CALM      30.09S
WALTERBORO     CLEAR     91  59  33 SE5       30.08F
BEAUFORT       MOSUNNY   89  70  53 SE6       30.08F


...EASTERN GEORGIA...

CITY           SKY/WX    TMP DP  RH WIND       PRES   REMARKS
AUGUSTA BUSH F MOSUNNY   92  68  45 NE6       30.07F HX  96
AUGUSTA DANIEL MOSUNNY   93  68  43 E8        30.09F HX  97
THOMSON        PTSUNNY   92  71  50 MISG      30.13F HX  99
WASHINGTON     FAIR      95  72  46 E5        30.10F HX 103
CLAXTON        FAIR      91  65  41 NE8       30.07F
STATESBORO     SUNNY     93  64  38 NE6       30.08F HX  95
SAVANNAH       MOSUNNY   91  66  43 SE13      30.07S


...SOUTHERN NORTH CAROLINA...

CITY           SKY/WX    TMP DP  RH WIND       PRES   REMARKS
CHARLOTTE      MOSUNNY   92  63  38 CALM      30.10F
MONROE         PTSUNNY   91  64  40 E6        30.09F
WADESBORO      PTCLDY    92  65  39 S5        30.08S
ROCKINGHAM     MOCLDY    91  66  44 S3        30.08S
RUTHERFORDTON    N/A     90  68  48 CALM      30.13S
ASHEVILLE      CLOUDY    87  65  47 CALM      30.19F

$$



USA.gov is the U.S. government's official web portal to all federal, state and local government web resources and services.